PBO Station Position Time Series. Reference Frame : NAM14
Format Version,1.1.1
4-character ID,NOPK
Station name,North_Park_SCIGN
Begin Date, 1999-04-14
End Date, 2023-06-26
Release Date, 2023-06-27
Reference position, 33.9797361412 North Latitude, -118.3480122772 East Longitude, 33.11119 meters elevation,
Date, North (mm), East (mm), Vertical (mm), North Std. Deviation (mm), East Std. Deviation (mm),              Vertical Std. Deviation (mm), Quality,
1999-04-14,0.00, 0.00, 0.00, 2.03, 1.82, 7.94, repro,
1999-04-15,0.85, 0.89, 8.85, 2.03, 1.82, 7.96, repro,
1999-04-16,0.87, 0.69, 8.51, 2.06, 1.89, 8.17, repro,
1999-04-17,0.19, 0.44, 12.17, 2.09, 1.82, 8.15, repro,
1999-04-18,1.30, 0.47, 8.40, 2.02, 1.81, 8.02, repro,
1999-04-19,1.14, 0.20, 9.02, 2.04, 1.80, 7.96, repro,
1999-04-20,0.47, -0.10, 14.60, 2.06, 1.84, 8.28, repro,
1999-05-18,62.93, 258.45, -692.81, 584.77, 813.75, 2060.81, repro,
1999-05-19,1.56, -1.34, 17.75, 2.08, 1.90, 8.27, repro,
1999-05-20,0.85, 0.09, 12.97, 2.07, 1.91, 8.18, repro,
1999-05-21,-0.01, -0.65, 16.43, 2.07, 1.91, 8.24, repro,
1999-05-22,2.84, 0.73, 7.88, 2.07, 1.84, 8.16, repro,
1999-05-23,0.02, -0.37, 17.18, 2.15, 1.91, 8.55, repro,
1999-05-24,1.80, 0.70, 6.99, 2.04, 1.87, 8.04, repro,
1999-05-25,1.75, 0.10, 20.15, 2.06, 1.88, 8.07, repro,
1999-05-26,0.66, -1.26, 16.27, 2.09, 1.95, 8.31, repro,
1999-05-27,-0.12, 0.25, 19.11, 2.02, 1.80, 7.87, repro,
1999-05-28,-0.28, 0.51, 16.10, 2.05, 1.84, 7.94, repro,
1999-05-29,-0.21, 0.54, 15.71, 2.02, 1.78, 7.86, repro,
1999-05-30,-0.22, -0.09, 12.83, 2.00, 1.77, 7.77, repro,
1999-05-31,0.13, -0.02, 12.50, 2.04, 1.79, 7.89, repro,
1999-06-01,1.99, -0.33, 22.19, 2.14, 1.84, 8.43, repro,
1999-06-02,0.31, -0.28, 25.54, 2.02, 1.80, 7.94, repro,
1999-06-03,1.00, -0.64, 27.60, 2.25, 1.93, 8.65, repro,
1999-06-04,1.29, -1.62, 22.20, 2.02, 1.81, 7.97, repro,
1999-06-05,1.40, -1.17, 22.64, 2.02, 1.80, 7.95, repro,
1999-06-06,2.34, -0.76, 19.11, 2.20, 1.97, 8.56, repro,
1999-06-07,0.64, -0.63, 19.28, 2.07, 1.86, 8.11, repro,
1999-06-08,1.14, -0.33, 27.62, 2.06, 1.85, 7.96, repro,
1999-06-09,0.89, -0.39, 29.10, 2.02, 1.81, 7.92, repro,
1999-06-10,1.74, -0.37, 22.35, 2.11, 1.91, 8.30, repro,
1999-06-11,-0.47, -0.67, 18.44, 2.06, 1.83, 8.23, repro,
1999-06-12,2.08, -1.20, 19.02, 2.02, 1.81, 7.91, repro,
1999-06-13,0.32, -0.96, 15.11, 2.05, 1.83, 8.01, repro,
1999-06-14,0.58, -0.36, 17.29, 2.23, 1.86, 8.70, repro,
1999-06-15,0.49, -1.17, 21.66, 2.09, 1.83, 8.12, repro,
1999-06-16,1.09, -1.19, 22.66, 2.04, 1.82, 7.98, repro,
1999-06-17,0.95, 0.03, 18.25, 2.11, 1.88, 8.18, repro,
1999-06-18,0.79, -1.49, 22.96, 2.02, 1.78, 7.84, repro,
1999-06-19,0.87, -1.25, 24.69, 2.07, 1.87, 8.24, repro,
1999-06-20,1.49, -1.59, 25.57, 2.17, 1.99, 8.47, repro,
1999-06-21,0.50, -1.39, 29.56, 2.15, 1.90, 8.44, repro,
1999-06-22,0.66, -0.28, 27.57, 2.14, 1.84, 8.34, repro,
1999-06-23,0.22, -1.35, 26.87, 2.08, 1.87, 8.12, repro,
1999-06-24,-0.98, -0.20, 24.15, 2.07, 1.82, 8.19, repro,
1999-06-25,-0.22, -0.40, 25.97, 2.17, 1.90, 8.50, repro,
1999-06-26,-0.11, -1.43, 31.31, 2.27, 1.90, 8.78, repro,
1999-06-27,-0.01, -0.54, 28.63, 2.31, 2.05, 9.33, repro,
1999-06-28,0.02, -1.11, 22.75, 2.14, 1.89, 8.29, repro,
1999-06-29,-1.67, -0.89, 31.81, 2.39, 2.01, 9.28, repro,
1999-06-30,-0.04, -0.61, 24.62, 2.19, 1.86, 8.68, repro,
1999-07-01,1.03, -1.08, 28.95, 2.39, 2.05, 9.51, repro,
1999-07-02,-0.06, 0.05, 37.26, 2.25, 1.91, 9.16, repro,
1999-07-03,-1.88, -0.09, 33.75, 2.26, 1.89, 9.15, repro,
1999-07-04,-1.02, 0.36, 30.65, 2.22, 1.92, 8.82, repro,
1999-07-05,0.34, -0.88, 20.23, 2.20, 1.91, 8.89, repro,
1999-07-06,0.45, -2.03, 29.44, 2.23, 1.98, 8.96, repro,
1999-07-07,1.87, -1.49, 33.26, 2.31, 1.93, 8.97, repro,
1999-07-08,2.91, -0.50, 33.13, 2.28, 1.91, 8.85, repro,
1999-07-09,-0.97, -0.10, 33.97, 2.19, 1.93, 8.75, repro,
1999-07-10,0.78, -0.71, 25.56, 2.19, 1.93, 8.78, repro,
1999-07-28,0.13, 0.51, 28.73, 2.05, 1.83, 8.18, repro,
1999-07-29,1.50, 0.29, 25.52, 2.14, 1.89, 8.35, repro,
1999-07-30,-0.43, 0.38, 41.70, 2.14, 1.90, 8.34, repro,
1999-07-31,-0.56, -1.01, 23.87, 2.04, 1.84, 8.17, repro,
1999-08-01,-0.39, -1.11, 22.80, 2.01, 1.79, 7.97, repro,
1999-08-02,0.00, 1.33, 12.60, 2.04, 1.80, 8.05, repro,
1999-08-03,-0.65, 0.62, 24.20, 2.08, 1.83, 8.11, repro,
1999-08-04,0.26, 0.51, 14.71, 2.08, 1.83, 8.32, repro,
1999-08-05,-0.93, 0.38, 18.03, 2.10, 1.84, 8.16, repro,
1999-08-06,-0.20, -1.35, 25.53, 2.13, 1.89, 8.35, repro,
1999-08-07,0.15, -0.79, 27.32, 2.01, 1.78, 7.94, repro,
1999-08-08,1.36, -0.03, 17.12, 2.16, 1.92, 8.54, repro,
1999-08-09,-0.54, -0.58, 23.66, 2.17, 1.96, 8.44, repro,
1999-08-10,-0.76, -0.81, 28.97, 2.09, 1.90, 8.20, repro,
1999-08-11,1.12, -0.05, 27.73, 2.06, 1.85, 8.08, repro,
1999-08-12,1.81, -0.24, 22.33, 2.09, 1.86, 8.22, repro,
1999-08-13,0.95, -0.84, 15.74, 2.03, 1.80, 8.03, repro,
1999-08-14,0.26, -0.77, 23.96, 2.02, 1.79, 7.99, repro,
1999-08-15,1.00, -0.10, 23.40, 2.17, 1.84, 8.37, repro,
1999-08-16,0.60, -0.32, 20.25, 2.07, 1.86, 8.32, repro,
1999-08-17,1.67, 0.81, 25.43, 2.06, 1.85, 8.16, repro,
1999-08-18,0.48, 0.64, 6.10, 2.54, 2.33, 10.30, repro,
1999-08-19,0.14, -0.04, 28.22, 2.03, 1.82, 8.08, repro,
1999-08-20,1.46, 0.28, 24.62, 2.08, 1.83, 8.09, repro,
1999-08-21,1.84, -0.56, 24.08, 2.07, 1.85, 8.19, repro,
1999-08-22,0.46, 0.56, 13.13, 2.06, 1.86, 8.26, repro,
1999-08-23,-0.02, -1.93, 26.58, 2.22, 1.91, 8.57, repro,
1999-08-24,0.37, 0.42, 17.57, 2.17, 1.91, 8.60, repro,
1999-08-25,-0.26, -0.24, 34.98, 2.15, 1.88, 8.41, repro,
1999-08-26,0.07, 0.24, 37.26, 2.21, 1.85, 8.76, repro,
1999-08-27,-1.08, 0.85, 34.47, 4.02, 3.93, 16.75, repro,
1999-08-28,0.32, -0.35, 27.19, 2.10, 1.89, 8.23, repro,
1999-08-29,0.30, 0.08, 27.04, 2.27, 2.08, 10.20, repro,
1999-09-14,3.85, 4.58, 20.62, 9.68, 6.28, 30.75, repro,
1999-09-15,2.39, 1.24, 17.80, 2.22, 1.90, 8.57, repro,
1999-09-16,0.39, -1.27, 21.95, 2.29, 2.02, 8.78, repro,
1999-09-17,1.46, 0.11, 22.39, 2.25, 1.92, 8.56, repro,
1999-09-18,3.08, 1.39, 15.12, 2.26, 1.91, 8.55, repro,
1999-09-19,1.79, 1.28, 23.32, 2.25, 1.91, 8.49, repro,
1999-09-20,0.72, 0.68, 21.29, 2.24, 1.96, 8.53, repro,
1999-09-21,2.62, -0.16, 19.40, 2.32, 2.08, 9.28, repro,
1999-09-22,0.73, 0.33, 21.97, 2.26, 1.95, 8.72, repro,
1999-09-23,1.52, -1.68, 24.23, 2.29, 2.04, 8.82, repro,
1999-09-24,0.97, 1.39, 23.74, 2.30, 1.99, 8.66, repro,
1999-09-25,1.58, -0.16, 25.78, 2.16, 1.91, 8.41, repro,
1999-09-26,-0.63, 1.49, 24.84, 2.38, 2.12, 9.22, repro,
1999-09-27,1.99, 0.52, 29.33, 2.32, 2.06, 9.22, repro,
1999-09-28,1.75, 1.59, 20.77, 2.43, 2.16, 9.21, repro,
1999-09-29,1.92, 1.74, 18.92, 2.60, 2.35, 9.77, repro,
1999-09-30,1.61, -0.58, 25.95, 2.74, 2.45, 10.23, repro,
1999-10-01,0.00, 1.95, 21.18, 2.70, 2.35, 10.29, repro,
1999-10-02,2.09, 1.17, 25.76, 2.27, 2.10, 8.98, repro,
1999-10-03,3.24, -0.57, 20.34, 2.42, 2.07, 9.30, repro,
1999-10-04,1.50, 0.71, 16.51, 2.17, 1.94, 8.34, repro,
1999-10-05,1.08, -0.33, 18.98, 2.21, 1.93, 8.30, repro,
1999-10-06,3.33, 0.83, 27.26, 2.19, 1.96, 8.41, repro,
1999-10-07,1.41, -0.72, 20.67, 2.33, 1.94, 8.88, repro,
1999-10-08,1.53, 0.83, 29.30, 2.31, 1.99, 8.75, repro,
1999-10-09,0.74, 0.30, 24.09, 2.38, 2.03, 9.15, repro,
1999-10-10,0.88, 0.55, 27.43, 2.11, 1.80, 8.24, repro,
1999-10-11,0.36, 0.88, 24.58, 2.22, 1.94, 8.50, repro,
1999-10-12,0.90, 1.22, 18.38, 2.22, 1.92, 8.52, repro,
1999-10-13,1.44, 0.82, 22.96, 2.32, 2.02, 9.08, repro,
1999-10-14,0.60, 1.07, 24.56, 2.14, 1.89, 8.40, repro,
1999-10-15,0.50, 0.26, 22.88, 2.21, 1.92, 8.42, repro,
1999-10-16,-0.52, 1.52, 28.58, 2.20, 1.94, 8.51, repro,
1999-10-17,1.97, 1.67, 24.21, 2.18, 1.86, 8.42, repro,
1999-10-18,-1.02, 0.66, 29.59, 2.43, 2.09, 9.22, repro,
1999-10-19,1.50, 0.74, 22.19, 2.32, 1.88, 8.94, repro,
1999-10-20,0.65, 0.81, 20.97, 2.18, 1.95, 8.56, repro,
1999-10-21,1.20, -0.09, 21.16, 2.29, 2.08, 9.38, repro,
1999-10-22,-0.20, 0.40, 20.96, 2.30, 2.09, 8.98, repro,
1999-10-23,0.20, 1.60, 13.27, 2.14, 1.90, 8.30, repro,
1999-10-24,-0.06, 0.34, 23.19, 2.24, 2.00, 9.14, repro,
1999-10-25,1.61, 2.03, 11.39, 2.14, 1.90, 8.32, repro,
1999-10-26,1.33, 1.00, 27.30, 2.04, 1.82, 8.12, repro,
1999-10-27,0.71, 1.55, 24.12, 2.16, 1.84, 8.50, repro,
1999-10-28,0.53, 0.96, 22.71, 2.19, 1.93, 8.39, repro,
1999-10-29,1.94, 0.48, 25.08, 2.24, 1.96, 8.59, repro,
1999-10-30,1.13, 1.51, 16.77, 2.10, 1.82, 8.13, repro,
1999-10-31,2.40, 0.61, 18.58, 2.45, 2.04, 9.20, repro,
1999-11-01,0.49, 1.32, 17.65, 2.58, 2.28, 9.88, repro,
1999-11-02,1.97, 1.10, 24.25, 2.19, 1.94, 8.52, repro,
1999-11-03,2.26, 0.79, 22.44, 2.47, 2.06, 9.48, repro,
1999-11-04,1.48, 1.04, 25.64, 2.21, 1.86, 8.43, repro,
1999-11-05,1.58, 0.82, 27.90, 2.22, 1.91, 8.56, repro,
1999-11-06,0.58, 1.11, 21.87, 2.18, 1.85, 8.39, repro,
1999-11-07,0.23, 1.90, 31.95, 2.17, 1.84, 8.38, repro,
1999-11-08,1.54, 1.36, 19.00, 2.18, 1.88, 8.66, repro,
1999-11-09,0.41, 1.39, 27.19, 2.10, 1.82, 8.09, repro,
1999-11-10,-0.60, 1.59, 24.51, 2.17, 1.87, 8.55, repro,
1999-11-11,1.47, 0.44, 22.88, 2.15, 1.92, 8.42, repro,
1999-11-12,1.17, 0.09, 27.35, 2.14, 1.92, 8.33, repro,
1999-11-13,2.84, 0.11, 25.38, 2.19, 1.89, 8.47, repro,
1999-11-14,1.49, -0.43, 26.88, 2.08, 1.81, 8.12, repro,
1999-11-15,0.15, 1.83, 23.19, 2.12, 1.80, 8.26, repro,
1999-11-16,2.39, 1.04, 29.91, 2.13, 1.90, 8.35, repro,
1999-11-17,0.51, -1.05, 31.48, 2.13, 1.91, 8.45, repro,
1999-11-18,1.50, -0.57, 34.13, 2.17, 1.86, 8.40, repro,
1999-11-19,1.32, 0.17, 20.84, 2.17, 1.95, 8.40, repro,
1999-11-20,0.77, 0.53, 32.12, 2.16, 1.95, 8.36, repro,
1999-11-21,0.21, -0.29, 34.99, 2.27, 2.09, 8.79, repro,
1999-11-22,1.30, 0.88, 30.75, 2.23, 1.94, 8.59, repro,
1999-11-23,0.75, -0.20, 24.99, 2.54, 2.39, 10.22, repro,
1999-11-24,0.87, 0.74, 14.56, 2.59, 2.47, 10.61, repro,
1999-11-25,1.09, 1.10, 28.45, 2.28, 1.98, 8.84, repro,
1999-11-26,0.57, 1.72, 25.47, 2.30, 2.23, 9.08, repro,
1999-11-27,0.05, 1.21, 25.75, 2.14, 1.98, 8.52, repro,
1999-11-28,0.40, 1.07, 17.10, 2.09, 1.88, 8.18, repro,
1999-11-29,-0.60, 2.25, 17.28, 2.16, 1.94, 8.47, repro,
1999-11-30,3.04, 1.58, 6.79, 2.17, 1.87, 8.44, repro,
1999-12-01,1.48, 1.54, 25.08, 2.31, 2.13, 9.26, repro,
1999-12-02,0.23, -0.66, 16.63, 2.02, 1.79, 8.01, repro,
1999-12-03,-0.24, 0.47, 25.77, 2.41, 2.28, 9.77, repro,
1999-12-04,-0.02, 0.95, 20.88, 2.22, 2.01, 8.71, repro,
1999-12-05,-0.94, 0.97, 16.28, 2.11, 1.86, 8.34, repro,
1999-12-06,1.77, 0.41, 17.22, 2.25, 1.97, 8.96, repro,
1999-12-07,-0.54, -0.68, 26.15, 2.47, 2.30, 9.97, repro,
1999-12-08,2.32, 1.50, 19.06, 2.79, 2.50, 10.64, repro,
1999-12-09,1.29, 2.43, 23.77, 2.23, 2.13, 8.89, repro,
1999-12-10,-0.13, -1.65, 21.30, 2.12, 1.93, 8.36, repro,
1999-12-11,0.40, -0.34, 22.90, 2.22, 2.08, 8.94, repro,
1999-12-12,0.30, -0.25, 20.29, 2.36, 2.24, 9.36, repro,
1999-12-13,0.02, 0.65, 14.83, 2.45, 2.39, 9.78, repro,
1999-12-14,0.26, 0.30, 18.34, 2.40, 2.05, 9.17, repro,
1999-12-15,0.21, 0.33, 18.59, 2.42, 2.17, 9.97, repro,
1999-12-16,-0.23, -0.47, 24.58, 2.29, 1.99, 8.91, repro,
1999-12-17,0.48, 0.17, 17.24, 2.47, 2.18, 9.55, repro,
1999-12-18,1.27, -2.27, 21.48, 2.46, 2.16, 9.62, repro,
1999-12-19,0.41, -0.48, 14.70, 2.19, 1.99, 8.79, repro,
1999-12-20,1.42, 1.37, 19.66, 2.20, 1.97, 8.60, repro,
1999-12-21,-0.03, -0.06, 18.83, 2.29, 1.98, 9.00, repro,
1999-12-22,-0.69, -1.08, 18.83, 2.32, 2.09, 9.33, repro,
1999-12-23,1.20, -0.17, 18.74, 2.25, 2.17, 8.91, repro,
1999-12-24,0.36, -0.32, 18.33, 2.36, 2.24, 9.71, repro,
1999-12-25,2.01, 0.22, 13.12, 2.12, 1.91, 8.35, repro,
1999-12-26,1.14, -0.99, 16.27, 2.26, 2.10, 9.08, repro,
1999-12-27,0.43, 0.92, 11.67, 2.14, 1.81, 8.39, repro,
1999-12-28,0.51, 0.87, 13.95, 2.24, 1.89, 8.86, repro,
1999-12-29,-0.04, 0.08, 9.99, 2.20, 1.90, 8.49, repro,
1999-12-30,1.17, -0.23, 21.60, 2.24, 1.96, 8.89, repro,
1999-12-31,0.10, -0.68, 22.64, 2.07, 1.81, 8.22, repro,
2000-01-01,0.08, -1.19, 23.53, 2.24, 1.93, 8.84, repro,
2000-01-02,-0.65, 0.18, 18.71, 2.03, 1.82, 8.01, repro,
2000-01-03,1.16, 0.49, 15.92, 2.04, 1.81, 8.14, repro,
2000-01-04,-0.09, 0.28, 15.22, 2.30, 1.95, 9.19, repro,
2000-01-05,-0.57, 0.61, 15.33, 2.02, 1.76, 7.87, repro,
2000-01-06,-0.15, 1.04, 11.40, 2.10, 1.78, 8.23, repro,
2000-01-07,0.97, 0.77, 12.58, 2.06, 1.80, 8.06, repro,
2000-01-08,0.69, -0.08, 12.75, 1.99, 1.77, 7.88, repro,
2000-01-09,1.28, 0.47, 22.04, 1.98, 1.75, 7.83, repro,
2000-01-10,0.36, -0.71, 18.45, 1.99, 1.75, 7.82, repro,
2000-01-11,0.86, 1.54, 14.88, 2.06, 1.85, 8.27, repro,
2000-01-12,0.33, 1.53, 17.60, 2.13, 1.87, 8.63, repro,
2000-01-13,2.04, 0.95, 13.88, 2.20, 1.88, 9.17, repro,
2000-01-14,1.03, 0.50, 10.07, 2.19, 1.93, 8.93, repro,
2000-01-15,1.06, 0.69, 10.12, 2.19, 1.95, 9.17, repro,
2000-01-16,-0.79, 0.64, 18.00, 1.98, 1.76, 7.94, repro,
2000-01-17,0.08, -1.18, 12.45, 2.05, 1.79, 8.27, repro,
2000-01-18,-0.41, 0.11, 23.81, 2.08, 1.83, 8.36, repro,
2000-01-19,1.39, 1.68, 17.80, 2.07, 1.82, 8.26, repro,
2000-01-20,0.41, 0.72, 15.55, 2.16, 1.84, 8.87, repro,
2000-01-21,1.03, -0.28, 19.46, 2.04, 1.89, 8.17, repro,
2000-01-22,1.25, -0.66, 26.34, 2.19, 1.90, 8.70, repro,
2000-01-23,0.75, 0.40, 27.50, 2.11, 1.86, 8.71, repro,
2000-01-24,1.40, 0.39, 23.42, 2.08, 1.84, 8.31, repro,
2000-01-25,1.69, -0.09, 21.05, 2.10, 1.83, 8.36, repro,
2000-01-26,2.54, -0.09, 18.40, 2.13, 1.82, 8.64, repro,
2000-01-27,2.51, 0.75, 11.16, 2.16, 1.84, 8.65, repro,
2000-01-28,1.38, -1.67, 26.19, 2.07, 1.83, 8.40, repro,
2000-01-29,1.12, 0.02, 15.90, 2.22, 1.97, 9.12, repro,
2000-01-30,2.29, -0.58, 8.85, 2.17, 1.83, 8.84, repro,
2000-01-31,1.63, 2.61, 10.00, 2.13, 1.82, 8.61, repro,
2000-02-01,1.15, 0.30, 13.05, 2.32, 1.96, 9.64, repro,
2000-02-02,1.30, 0.47, 19.23, 2.25, 1.84, 9.15, repro,
2000-02-03,1.94, 0.12, 17.56, 2.17, 1.84, 8.88, repro,
2000-02-04,1.42, 0.40, 23.51, 2.14, 1.84, 8.75, repro,
2000-02-05,1.88, 0.68, 15.33, 2.27, 2.00, 9.24, repro,
2000-02-06,1.07, 0.77, 20.01, 2.01, 1.81, 7.99, repro,
2000-02-07,0.76, -0.50, 12.77, 2.33, 1.98, 9.14, repro,
2000-02-08,0.21, -0.57, 14.54, 2.17, 1.96, 9.05, repro,
2000-02-09,0.76, 0.24, 14.45, 2.11, 1.87, 8.50, repro,
2000-02-10,0.61, 0.39, 12.99, 2.04, 1.82, 8.08, repro,
2000-02-11,2.17, 0.06, 15.19, 1.98, 1.78, 7.93, repro,
2000-02-12,0.48, -1.36, 18.85, 2.05, 1.82, 8.15, repro,
2000-02-13,1.03, -1.83, 18.08, 2.01, 1.82, 8.08, repro,
2000-02-14,0.03, -0.85, 21.16, 2.04, 1.81, 8.13, repro,
2000-02-15,2.53, -0.40, 22.47, 2.04, 1.79, 8.17, repro,
2000-02-16,0.41, 1.83, 9.64, 2.05, 1.82, 8.21, repro,
2000-02-17,2.10, -2.75, 24.25, 2.04, 1.84, 8.12, repro,
2000-02-18,0.75, 0.07, 11.40, 2.00, 1.78, 7.95, repro,
2000-02-19,1.04, -0.56, 11.78, 2.07, 1.81, 8.14, repro,
2000-02-20,0.79, -0.28, 18.17, 2.10, 1.83, 8.38, repro,
2000-02-21,-0.31, 1.83, 12.67, 2.17, 1.91, 8.86, repro,
2000-02-22,1.51, -1.21, 15.79, 2.02, 1.77, 8.08, repro,
2000-02-23,-1.01, -0.87, 14.21, 2.05, 1.84, 8.31, repro,
2000-02-24,0.79, -2.10, 12.03, 2.00, 1.75, 7.87, repro,
2000-02-25,0.90, -1.10, 15.28, 2.01, 1.77, 7.99, repro,
2000-02-26,2.21, 0.44, 13.15, 2.25, 2.09, 8.87, repro,
2000-02-27,0.38, 0.56, 14.40, 2.02, 1.78, 7.98, repro,
2000-02-28,0.05, -0.58, 14.20, 2.07, 1.79, 8.20, repro,
2000-02-29,1.32, 0.60, 13.29, 2.12, 1.86, 8.60, repro,
2000-03-01,0.92, -1.02, 16.31, 2.41, 2.43, 10.29, repro,
2000-03-02,1.21, -0.98, 15.02, 2.03, 1.79, 8.19, repro,
2000-03-03,1.48, -1.72, 21.36, 2.27, 2.04, 9.41, repro,
2000-03-04,2.25, -0.21, 23.24, 2.23, 1.99, 8.94, repro,
2000-03-05,-0.21, -0.58, 27.03, 2.06, 1.83, 8.18, repro,
2000-03-06,0.01, 0.13, 15.52, 2.20, 1.90, 8.98, repro,
2000-03-07,2.29, -1.24, 15.89, 2.28, 2.07, 9.11, repro,
2000-03-08,0.12, 0.07, 7.66, 2.12, 1.89, 8.65, repro,
2000-03-09,2.41, -1.90, 9.86, 2.29, 1.95, 9.24, repro,
2000-03-10,1.61, -0.37, 6.37, 2.35, 2.01, 9.14, repro,
2000-03-11,0.51, -0.96, 2.42, 2.21, 1.91, 8.78, repro,
2000-03-12,1.45, 0.70, 3.08, 2.35, 1.99, 9.27, repro,
2000-03-13,1.05, -1.04, 14.02, 2.45, 2.10, 9.95, repro,
2000-03-14,1.12, -1.11, 18.52, 2.27, 2.04, 9.30, repro,
2000-03-15,2.47, 0.02, 18.44, 2.12, 1.89, 8.58, repro,
2000-03-16,2.43, -0.39, 11.24, 2.25, 2.05, 9.28, repro,
2000-03-17,1.57, -0.14, 11.82, 2.12, 1.94, 8.71, repro,
2000-03-18,2.74, -2.06, 12.10, 2.10, 1.82, 8.40, repro,
2000-03-19,1.96, -0.23, 15.10, 2.15, 1.88, 8.46, repro,
2000-03-20,0.19, -1.36, 19.98, 2.40, 1.99, 9.55, repro,
2000-03-21,1.82, 0.59, 15.14, 2.21, 1.89, 8.56, repro,
2000-03-22,1.81, -0.39, 10.05, 2.23, 1.98, 8.86, repro,
2000-03-23,1.45, 0.01, 19.36, 2.17, 1.92, 8.68, repro,
2000-03-24,0.56, -0.94, 16.32, 2.23, 1.92, 8.69, repro,
2000-03-25,1.69, 0.70, 17.00, 2.19, 1.85, 8.49, repro,
2000-03-26,1.74, 0.43, 14.56, 2.22, 1.84, 8.55, repro,
2000-03-27,1.54, -0.29, 12.65, 2.36, 1.89, 9.28, repro,
2000-03-28,1.58, -0.61, 26.28, 2.17, 1.80, 8.49, repro,
2000-03-29,1.98, -1.14, 21.46, 2.20, 1.83, 8.73, repro,
2000-03-30,0.61, 0.13, 7.18, 2.11, 1.75, 8.14, repro,
2000-03-31,1.43, 1.01, 10.33, 2.19, 1.86, 8.72, repro,
2000-04-01,0.92, 1.12, 13.78, 2.22, 1.88, 8.92, repro,
2000-04-02,1.15, -0.65, 18.80, 2.24, 1.93, 8.88, repro,
2000-04-03,1.67, -0.50, 9.14, 2.16, 1.81, 8.47, repro,
2000-04-04,1.98, 1.21, 12.34, 2.14, 1.78, 8.27, repro,
2000-04-05,1.43, -0.16, 15.05, 2.13, 1.80, 8.40, repro,
2000-04-06,0.82, -0.23, 21.40, 2.27, 1.88, 8.68, repro,
2000-04-07,0.88, 0.38, 12.39, 2.29, 1.88, 8.79, repro,
2000-04-08,0.71, 0.68, 6.96, 2.11, 1.87, 8.52, repro,
2000-04-09,1.47, 0.64, 17.70, 2.10, 1.87, 8.43, repro,
2000-04-10,0.88, 0.30, 14.75, 2.09, 1.81, 8.32, repro,
2000-04-11,0.68, -1.10, 12.23, 2.07, 1.77, 8.26, repro,
2000-04-12,1.54, -0.92, 21.84, 2.16, 1.83, 8.76, repro,
2000-04-13,1.36, -0.14, 20.04, 2.17, 1.85, 8.77, repro,
2000-04-14,2.08, -0.25, 18.16, 2.13, 1.79, 8.50, repro,
2000-04-15,2.48, -0.64, 14.95, 2.07, 1.77, 8.26, repro,
2000-04-16,2.06, -0.90, 18.00, 2.09, 1.77, 8.28, repro,
2000-04-17,0.22, -1.17, 25.67, 2.11, 1.87, 8.46, repro,
2000-04-18,0.47, -1.79, 29.11, 2.11, 1.91, 8.57, repro,
2000-04-19,0.70, -0.56, 22.48, 2.08, 1.83, 8.50, repro,
2000-04-20,0.41, 0.40, 23.01, 2.16, 1.87, 8.57, repro,
2000-04-21,1.22, -0.33, 18.65, 2.12, 1.80, 8.50, repro,
2000-04-22,0.99, -0.31, 21.95, 2.08, 1.80, 8.33, repro,
2000-04-23,1.25, -0.70, 25.88, 2.07, 1.77, 8.24, repro,
2000-04-24,1.51, -1.03, 28.31, 2.10, 1.80, 8.46, repro,
2000-04-25,1.77, -0.21, 16.09, 2.06, 1.78, 8.26, repro,
2000-04-26,2.84, -1.21, 16.24, 2.11, 1.88, 8.47, repro,
2000-04-27,0.85, -1.66, 13.74, 2.12, 1.86, 8.49, repro,
2000-04-28,1.06, -1.81, 19.35, 2.12, 1.88, 8.49, repro,
2000-04-29,1.69, -1.85, 24.18, 2.14, 1.93, 8.52, repro,
2000-04-30,1.83, -1.29, 15.14, 2.09, 1.88, 8.43, repro,
2000-05-01,1.60, -1.61, 20.79, 2.10, 1.90, 8.54, repro,
2000-05-02,1.61, -0.97, 16.26, 2.18, 1.94, 8.62, repro,
2000-05-03,0.65, -0.59, 19.43, 2.22, 2.01, 8.83, repro,
2000-05-04,1.62, -0.10, 24.90, 2.07, 1.80, 8.30, repro,
2000-05-05,0.36, -0.63, 25.00, 2.09, 1.86, 8.38, repro,
2000-05-06,1.28, -1.34, 30.44, 2.05, 1.78, 8.23, repro,
2000-05-07,0.19, -1.42, 28.51, 2.11, 1.91, 8.53, repro,
2000-05-08,2.35, -0.92, 26.69, 2.12, 1.88, 8.49, repro,
2000-05-09,1.47, -1.15, 18.06, 2.10, 1.88, 8.46, repro,
2000-05-10,1.72, -0.93, 27.39, 2.08, 1.77, 8.23, repro,
2000-05-11,1.20, -1.27, 30.27, 2.08, 1.88, 8.35, repro,
2000-05-12,1.06, -0.16, 26.98, 2.15, 1.94, 8.50, repro,
2000-05-13,1.68, -1.43, 22.52, 2.10, 1.88, 8.43, repro,
2000-05-14,0.13, 0.01, 26.03, 2.08, 1.77, 8.24, repro,
2000-05-15,0.80, 0.52, 29.00, 2.18, 1.85, 8.50, repro,
2000-05-16,0.10, -1.98, 28.86, 2.10, 1.82, 8.34, repro,
2000-05-17,-21.71, 49.05, 97.00, 65.62, 128.07, 201.96, repro,
2000-05-18,1.52, -2.73, 28.43, 2.12, 1.83, 8.40, repro,
2000-05-19,-0.07, -2.30, 25.27, 2.11, 1.81, 8.57, repro,
2000-05-20,2.24, -0.83, 25.26, 2.12, 1.89, 8.74, repro,
2000-05-21,0.71, -0.30, 28.25, 2.09, 1.83, 8.45, repro,
2000-05-22,0.12, 0.42, 26.94, 3.68, 2.91, 14.48, repro,
2000-05-23,0.48, 0.65, 22.69, 2.20, 1.83, 8.63, repro,
2000-05-24,1.42, -0.33, 29.93, 2.47, 2.21, 9.81, repro,
2000-05-25,0.85, -1.45, 30.96, 2.88, 2.51, 11.65, repro,
2000-05-26,0.89, -1.33, 24.35, 2.95, 2.54, 11.88, repro,
2000-05-27,0.23, -1.39, 26.56, 2.90, 2.48, 11.63, repro,
2000-05-28,2.31, 0.68, 18.12, 2.94, 2.51, 11.97, repro,
2000-05-29,0.99, -0.07, 17.72, 2.92, 2.60, 12.12, repro,
2000-05-30,1.93, -1.37, 23.61, 2.85, 2.48, 11.50, repro,
2000-05-31,1.71, -2.64, 23.50, 2.96, 2.61, 12.23, repro,
2000-06-01,0.10, -2.09, 26.47, 2.89, 2.54, 11.50, repro,
2000-06-02,1.84, -1.27, 25.66, 2.82, 2.55, 11.48, repro,
2000-06-03,2.98, -0.94, 23.00, 2.90, 2.56, 11.83, repro,
2000-06-04,2.02, -1.18, 19.90, 2.82, 2.55, 11.39, repro,
2000-06-05,1.32, -0.23, 22.76, 2.89, 2.72, 11.77, repro,
2000-06-06,1.58, -2.03, 26.45, 2.88, 2.61, 11.91, repro,
2000-06-07,2.36, -0.15, 18.29, 2.85, 2.53, 11.43, repro,
2000-06-08,0.14, 0.01, 10.56, 2.75, 2.45, 11.01, repro,
2000-06-09,2.77, -3.19, 22.86, 2.81, 2.45, 11.26, repro,
2000-06-10,0.80, -1.33, 26.73, 2.93, 2.59, 11.96, repro,
2000-06-11,1.10, -1.89, 21.89, 2.90, 2.61, 11.67, repro,
2000-06-12,3.65, -1.25, 19.75, 3.03, 2.82, 12.10, repro,
2000-06-13,0.44, -3.28, 24.18, 2.86, 2.50, 11.56, repro,
2000-06-14,2.71, -2.64, 28.17, 2.87, 2.55, 11.74, repro,
2000-06-15,1.43, -2.27, 25.27, 2.99, 2.76, 12.31, repro,
2000-06-16,-0.22, -2.34, 29.36, 2.80, 2.48, 11.34, repro,
2000-06-17,1.76, -1.24, 23.79, 2.90, 2.69, 11.75, repro,
2000-06-18,0.58, -2.43, 29.09, 2.95, 2.68, 12.12, repro,
2000-06-19,1.51, -0.73, 23.66, 2.89, 2.60, 11.96, repro,
2000-06-20,0.30, -0.91, 23.99, 2.89, 2.51, 11.61, repro,
2000-06-21,0.97, -1.96, 31.70, 2.98, 2.61, 11.84, repro,
2000-06-22,0.36, 0.31, 18.45, 2.95, 2.60, 11.76, repro,
2000-06-23,1.55, -2.85, 19.45, 2.99, 2.61, 12.21, repro,
2000-06-24,0.71, -1.17, 30.75, 2.86, 2.57, 11.71, repro,
2000-06-25,2.37, -2.27, 23.90, 2.90, 2.51, 11.59, repro,
2000-06-26,0.97, -2.07, 25.81, 3.06, 2.65, 12.50, repro,
2000-06-27,1.92, -1.90, 30.06, 3.32, 2.70, 12.68, repro,
2000-06-28,0.71, -2.05, 22.40, 3.10, 2.59, 12.52, repro,
2000-06-29,1.30, -1.34, 27.89, 3.04, 2.58, 11.99, repro,
2000-06-30,2.66, -2.29, 13.92, 2.99, 2.56, 12.19, repro,
2000-07-01,0.77, -0.95, 13.85, 2.96, 2.51, 11.92, repro,
2000-07-02,-0.27, -2.10, 28.06, 3.02, 2.58, 12.14, repro,
2000-07-03,1.94, -3.86, 25.38, 3.05, 2.62, 12.47, repro,
2000-07-04,-0.87, 0.25, 29.96, 3.01, 2.57, 12.23, repro,
2000-07-05,0.89, -0.49, 14.28, 3.14, 2.80, 13.28, repro,
2000-07-06,0.71, -1.92, 17.05, 2.89, 2.52, 11.65, repro,
2000-07-07,0.88, 0.20, 17.20, 2.98, 2.60, 12.23, repro,
2000-07-08,-0.12, -2.51, 17.66, 2.97, 2.58, 12.10, repro,
2000-07-09,0.39, -1.82, 23.16, 3.01, 2.57, 12.16, repro,
2000-07-10,0.78, -0.60, 16.76, 3.02, 2.61, 12.37, repro,
2000-07-11,0.19, -2.11, 41.08, 2.90, 2.58, 11.84, repro,
2000-07-12,0.88, -0.77, 14.79, 2.93, 2.55, 12.02, repro,
2000-07-13,-0.25, -2.71, 17.92, 2.95, 2.58, 12.03, repro,
2000-07-14,1.47, -2.42, 27.26, 3.06, 2.62, 12.63, repro,
2000-07-15,-0.43, -2.62, 29.55, 3.10, 2.77, 13.01, repro,
2000-07-16,-1.34, -0.97, 22.38, 2.98, 2.74, 12.52, repro,
2000-07-17,2.33, -1.17, 15.85, 2.94, 2.59, 11.99, repro,
2000-07-18,1.80, -1.00, 17.77, 2.91, 2.55, 11.81, repro,
2000-07-19,1.64, -1.47, 19.77, 3.10, 2.71, 12.86, repro,
2000-07-20,1.20, -3.02, 21.33, 2.90, 2.59, 11.86, repro,
2000-07-21,0.99, -1.65, 27.06, 2.90, 2.61, 11.97, repro,
2000-07-22,1.56, -1.22, 20.11, 3.14, 2.70, 13.22, repro,
2000-07-23,-0.73, -0.75, 17.00, 3.00, 2.58, 12.12, repro,
2000-07-24,0.57, -1.20, 28.02, 2.99, 2.57, 11.75, repro,
2000-07-25,0.05, -2.24, 24.53, 2.90, 2.52, 11.49, repro,
2000-07-26,2.11, -2.01, 27.32, 2.98, 2.65, 12.08, repro,
2000-07-27,-0.15, -3.38, 30.98, 3.06, 2.56, 12.03, repro,
2000-07-28,-0.49, -2.45, 33.77, 3.15, 2.67, 12.46, repro,
2000-07-29,-0.34, 0.06, 25.81, 3.12, 2.59, 12.38, repro,
2000-07-30,-0.98, 0.15, 22.95, 2.93, 2.53, 11.63, repro,
2000-07-31,-0.96, -1.74, 34.44, 3.02, 2.60, 12.07, repro,
2000-08-01,-1.24, -2.30, 17.49, 3.07, 2.68, 12.56, repro,
2000-08-02,-1.90, -1.33, 24.82, 3.09, 2.65, 12.41, repro,
2000-08-03,-0.18, -2.15, 23.03, 3.02, 2.59, 12.08, repro,
2000-08-04,-1.23, 0.03, 24.20, 3.12, 2.60, 12.40, repro,